GFSNGP_850_temp_180.txt.gz
Temp
11 11 11 10 10 11 10 10 8 9 10 12 11 11 9 10 9 9 9 8 6 8 6 4 3 2 1 1 2 -0 -1 -2 -1 -2 -2 -3 -2 -2 -2 -3 -3 -3 -3 -3
9 11 11 10 11 11 11 10 9 10 11 13 13 13 12 11 11 10 9 8 6 4 4 3 2 1 1 1 0 -2 -2 -2 -4 -4 -3 -3 -3 -3 -3 -4 -3 -3 -3 -3
8 10 10 7 9 10 11 11 11 10 12 13 13 12 12 11 11 10 9 8 6 4 4 2 -0 -0 -1 -1 -2 -3 -3 -4 -5 -5 -4 -3 -4 -4 -4 -4 -4 -3 -3 -4
7 8 5 10 11 11 10 11 11 11 12 12 12 11 11 10 10 9 8 7 5 4 2 0 -1 -1 -1 -2 -3 -3 -3 -4 -5 -5 -5 -5 -6 -6 -6 -6 -5 -5 -4 -4
6 7 9 9 10 10 10 9 11 11 12 11 10 10 10 8 7 7 6 5 5 4 2 0 -1 -1 -1 -2 -3 -4 -3 -4 -5 -5 -5 -5 -6 -6 -6 -6 -6 -6 -5 -5
5 5 6 10 10 9 10 7 9 9 8 7 9 9 10 7 6 6 6 5 4 3 2 -0 -1 -2 -2 -3 -3 -3 -4 -4 -4 -5 -5 -5 -5 -6 -6 -6 -6 -7 -5 -5
7 6 8 9 7 7 6 8 7 7 7 7 8 8 8 7 6 5 5 4 4 3 1 -1 -2 -2 -3 -3 -1 -1 -3 -4 -4 -5 -5 -5 -5 -6 -6 -6 -7 -7 -6 -6
7 6 6 7 8 7 7 7 7 6 6 6 6 7 7 6 5 5 4 4 2 1 -0 -2 -3 -3 -2 -1 -1 -2 -3 -4 -5 -5 -5 -5 -5 -6 -6 -6 -7 -7 -7 -7
8 8 9 7 7 7 7 7 6 6 6 5 6 7 7 7 5 4 3 2 1 0 -1 -2 -3 -2 -0 -1 -1 -2 -3 -3 -3 -4 -5 -6 -6 -6 -6 -6 -7 -7 -6 -5
6 7 8 8 8 7 7 6 5 5 3 4 5 7 7 7 5 4 3 3 1 -0 -1 -1 -1 -0 -0 -1 -1 -2 -3 -4 -4 -4 -5 -5 -6 -5 -5 -5 -6 -5 -5 -5
7 8 8 7 7 7 6 6 5 4 5 4 5 6 6 6 5 4 3 3 2 2 2 2 1 0 -0 -1 -1 -2 -3 -4 -5 -5 -5 -5 -5 -5 -5 -4 -4 -4 -4 -4
6 8 8 7 7 6 6 5 5 5 5 5 5 5 5 5 5 3 2 1 2 2 2 1 1 0 -1 -1 -2 -3 -5 -5 -5 -6 -6 -6 -6 -5 -5 -5 -5 -5 -5 -5
7 7 6 6 5 5 5 5 5 4 5 5 5 5 5 5 4 4 4 2 2 2 2 1 1 0 -1 -1 -2 -3 -4 -5 -6 -6 -7 -7 -7 -6 -5 -5 -5 -6 -5 -5
6 6 6 5 5 5 5 4 4 4 4 4 4 4 4 3 3 4 4 4 3 2 2 1 0 -0 -1 -1 -2 -2 -3 -3 -4 -4 -5 -5 -5 -5 -5 -5 -5 -5 -5 -5
6 5 5 5 4 4 4 4 4 5 4 4 3 4 3 2 2 2 1 2 2 1 1 1 -0 -0 -1 -2 -2 -2 -3 -4 -4 -5 -5 -5 -5 -6 -6 -6 -5 -5 -5 -6
5 5 5 4 4 4 3 3 4 4 3 3 2 3 2 1 -0 -0 1 1 1 0 0 0 0 -0 -1 -2 -2 -3 -4 -4 -4 -5 -5 -6 -6 -7 -7 -7 -7 -7 -7 -7
4 4 4 4 4 2 2 2 2 2 2 2 2 2 0 0 0 -0 -1 -1 -1 -1 -1 -2 -1 -1 -2 -2 -3 -3 -4 -4 -5 -5 -6 -7 -6 -7 -7 -8 -8 -8 -7 -7
2 2 2 2 1 1 1 0 1 1 1 1 1 1 -0 -1 -1 -1 -1 -2 -2 -2 -2 -2 -2 -2 -3 -3 -3 -4 -4 -5 -5 -5 -7 -7 -7 -7 -7 -8 -8 -8 -9 -9
-2 -1 -0 -0 -0 -0 -1 -0 0 1 1 1 1 0 -0 -1 -1 -1 -2 -2 -2 -2 -2 -2 -3 -3 -3 -3 -4 -4 -5 -5 -6 -6 -6 -7 -7 -7 -8 -8 -8 -8 -9 -9
-2 -2 -1 -2 -1 -1 -1 -0 -0 -0 -0 -0 0 -1 -1 -1 -1 -1 -2 -2 -2 -2 -2 -2 -3 -3 -3 -3 -4 -5 -5 -5 -6 -6 -7 -7 -7 -7 -7 -8 -9 -9 -9 -9
-3 -2 -2 -2 -2 -2 -2 -1 -1 -1 -1 -1 -1 -2 -1 -1 -2 -2 -3 -3 -3 -3 -3 -3 -3 -3 -3 -4 -4 -4 -5 -5 -6 -7 -7 -7 -8 -8 -9 -9 -9 -9 -9 -10
-3 -3 -3 -3 -3 -2 -2 -2 -2 -2 -2 -2 -2 -2 -2 -2 -2 -3 -3 -3 -4 -4 -4 -4 -4 -4 -4 -5 -5 -5 -5 -6 -6 -7 -8 -8 -8 -9 -9 -9 -9 -10 -10 -10
-4 -4 -4 -4 -3 -3 -3 -3 -2 -3 -3 -3 -3 -3 -3 -3 -3 -4 -4 -4 -4 -4 -4 -4 -5 -5 -5 -5 -5 -5 -6 -6 -7 -7 -7 -8 -8 -8 -9 -9 -10 -10 -10 -11
-4 -4 -4 -4 -4 -5 -4 -4 -4 -4 -4 -4 -4 -4 -5 -5 -5 -5 -5 -5 -5 -5 -5 -5 -5 -5 -6 -6 -6 -6 -7 -7 -7 -8 -8 -8 -9 -9 -9 -10 -10 -10 -11 -11
-5 -5 -5 -6 -6 -6 -6 -6 -6 -6 -6 -6 -6 -6 -6 -6 -6 -6 -6 -6 -6 -6 -6 -6 -6 -6 -6 -7 -7 -7 -7 -8 -8 -8 -9 -9 -9 -10 -10 -10 -11 -11 -11 -11
-6 -6 -6 -7 -7 -8 -7 -7 -7 -8 -8 -7 -7 -7 -7 -7 -7 -7 -7 -7 -6 -6 -7 -7 -7 -7 -7 -8 -8 -8 -8 -9 -9 -9 -9 -10 -10 -11 -11 -11 -11 -12 -12 -12
-7 -7 -8 -8 -9 -8 -8 -8 -9 -8 -7 -8 -8 -8 -8 -8 -8 -8 -8 -8 -8 -8 -8 -8 -8 -8 -9 -9 -9 -9 -9 -10 -10 -10 -11 -11 -11 -11 -12 -12 -12 -12 -12 -12

GFSNGP_850_temp_186.txt.gz
Temp
11 12 13 13 13 14 13 13 11 12 13 14 14 14 12 13 13 13 13 13 13 12 10 8 7 6 5 4 3 2 1 0 -0 -0 -1 -2 -2 -2 -3 -3 -3 -3 -2 -2
10 12 12 12 13 13 14 14 13 13 13 15 14 14 14 14 14 12 11 12 12 12 11 10 7 6 4 3 2 1 0 -0 -1 -1 -2 -2 -2 -3 -3 -4 -3 -3 -2 -1
6 10 10 9 11 12 12 13 13 12 13 14 14 14 13 12 12 12 10 9 12 12 10 8 8 6 2 1 1 1 -0 -1 -1 -2 -2 -3 -3 -3 -4 -4 -3 -2 -1 -2
7 8 6 10 13 13 12 13 13 13 13 13 11 10 10 7 6 7 9 10 10 10 10 8 6 5 3 1 1 0 -0 -1 -1 -2 -3 -3 -4 -4 -5 -4 -3 -2 -2 -2
6 7 8 10 12 12 11 10 9 12 11 11 10 9 9 6 5 5 6 7 8 8 8 7 6 4 2 0 0 -0 -0 -1 -2 -2 -3 -4 -4 -4 -5 -4 -4 -2 -2 -2
6 6 7 10 11 9 8 7 11 10 10 10 10 7 7 6 5 4 5 8 7 7 6 6 5 3 2 0 0 -0 -1 -1 -2 -2 -3 -4 -5 -5 -4 -4 -4 -4 -4 -4
7 7 6 10 10 11 8 9 10 10 10 10 8 8 7 6 6 5 7 7 7 6 5 4 3 3 2 1 0 -0 -1 -1 -2 -2 -4 -4 -5 -4 -4 -4 -4 -4 -5 -5
5 5 6 9 9 7 10 10 10 10 10 9 8 7 7 7 8 8 8 7 6 5 5 4 3 2 2 1 0 -0 -1 -1 -2 -2 -3 -4 -5 -4 -4 -4 -4 -4 -5 -5
7 7 7 8 6 8 10 11 10 10 9 9 9 8 7 7 7 8 8 7 6 5 5 3 2 2 1 1 0 -1 -1 -1 -2 -3 -3 -4 -4 -3 -4 -4 -4 -4 -5 -6
6 9 9 10 10 11 11 10 10 10 9 8 8 7 6 7 7 7 7 6 6 5 5 3 1 0 0 0 -0 -1 -1 -2 -2 -3 -4 -3 -3 -3 -4 -4 -4 -4 -5 -5
5 6 7 9 10 10 9 10 9 9 8 8 7 7 5 4 5 7 8 7 5 4 4 3 1 -0 -1 -1 -1 -1 -2 -2 -3 -3 -4 -4 -3 -3 -4 -4 -4 -4 -5 -5
6 8 7 8 9 7 8 8 9 8 8 8 7 6 6 7 7 8 8 7 5 4 2 1 0 -1 -1 -1 -1 -2 -2 -3 -3 -4 -4 -4 -3 -4 -4 -4 -4 -5 -5 -5
5 8 8 8 9 8 7 9 8 8 7 7 7 6 6 6 6 6 6 6 5 4 2 1 -0 -1 0 1 -0 -1 -2 -2 -3 -4 -4 -4 -4 -4 -4 -4 -5 -5 -5 -5
7 8 8 8 9 9 9 8 8 7 7 7 6 6 6 5 5 5 5 5 5 4 2 1 0 -0 -1 -1 -1 -1 -2 -3 -3 -4 -5 -4 -5 -5 -5 -5 -5 -5 -6 -6
8 8 8 8 8 8 8 8 8 7 7 6 4 3 5 4 4 3 4 4 3 2 2 1 -1 -1 -1 -2 -2 -2 -3 -4 -4 -4 -5 -5 -5 -5 -6 -6 -6 -6 -6 -6
8 8 8 8 8 8 8 8 7 6 6 5 4 3 3 3 2 1 1 1 1 1 -0 -1 -1 -2 -2 -3 -3 -3 -3 -4 -4 -4 -5 -5 -5 -6 -6 -6 -6 -7 -7 -6
6 6 6 6 6 7 7 7 5 4 4 4 3 2 3 2 2 0 -0 -1 -1 -1 -1 -1 -2 -2 -3 -3 -3 -4 -4 -4 -4 -4 -4 -5 -5 -6 -6 -6 -6 -6 -6 -7
4 3 3 3 3 3 4 3 3 2 2 2 2 1 1 1 0 -1 -2 -1 -2 -2 -2 -3 -3 -3 -3 -3 -4 -4 -4 -5 -5 -5 -6 -6 -6 -6 -6 -6 -6 -6 -7 -7
-1 -1 -1 -0 -0 -0 -0 -0 0 0 0 1 0 -0 -0 -1 -1 -0 -1 -2 -2 -3 -3 -3 -3 -3 -3 -4 -4 -5 -5 -5 -5 -5 -5 -6 -6 -6 -6 -7 -7 -7 -7 -7
-2 -2 -2 -2 -2 -2 -2 -2 -2 -1 -1 -1 -1 -1 -1 -1 -2 -2 -2 -2 -3 -3 -3 -3 -3 -3 -4 -4 -4 -4 -5 -5 -5 -6 -6 -6 -6 -7 -7 -7 -7 -7 -7 -7
-3 -3 -3 -3 -3 -3 -3 -2 -2 -2 -2 -2 -2 -2 -2 -2 -3 -3 -3 -3 -4 -4 -4 -4 -4 -4 -4 -4 -4 -5 -6 -6 -6 -6 -7 -7 -7 -7 -7 -7 -8 -8 -8 -8
-4 -4 -4 -4 -4 -4 -3 -3 -3 -3 -3 -3 -3 -4 -4 -4 -4 -4 -4 -5 -5 -5 -5 -5 -5 -5 -5 -5 -5 -6 -6 -6 -7 -7 -7 -7 -7 -7 -8 -8 -8 -8 -8 -8
-4 -4 -4 -4 -4 -4 -4 -4 -4 -4 -4 -4 -4 -5 -5 -5 -4 -5 -5 -5 -5 -5 -6 -5 -5 -5 -5 -6 -6 -6 -6 -6 -7 -7 -7 -7 -7 -8 -8 -8 -8 -8 -8 -8
-4 -5 -4 -5 -5 -5 -5 -6 -5 -5 -5 -5 -6 -6 -6 -6 -6 -7 -7 -6 -6 -6 -6 -6 -6 -6 -6 -6 -6 -7 -7 -8 -8 -8 -8 -8 -8 -8 -8 -8 -8 -8 -8 -9
-5 -5 -5 -5 -5 -6 -6 -6 -6 -7 -7 -7 -7 -6 -7 -7 -7 -8 -7 -7 -6 -6 -7 -6 -6 -7 -7 -8 -8 -8 -8 -8 -8 -8 -8 -8 -9 -9 -9 -9 -9 -9 -9 -9
-5 -5 -5 -5 -6 -6 -6 -6 -6 -7 -7 -8 -8 -8 -8 -8 -8 -8 -8 -9 -9 -9 -9 -9 -8 -8 -9 -9 -9 -10 -10 -9 -9 -9 -9 -9 -10 -10 -10 -10 -10 -10 -10 -10
-6 -6 -7 -7 -7 -7 -7 -7 -7 -8 -8 -8 -9 -10 -9 -9 -9 -9 -10 -9 -9 -10 -10 -11 -10 -10 -10 -11 -11 -10 -10 -10 -10 -10 -10 -10 -10 -10 -10 -10 -10 -11 -11 -11

GFSNGP_850_temp_189.txt.gz
Temp
9 10 10 9 10 10 11 11 10 10 11 11 10 10 10 11 10 11 11 12 11 12 12 11 9 9 8 6 5 5 4 3 3 2 1 0 -1 0 -1 -1 -1 -1 -1 -1
7 8 8 8 10 11 10 11 11 11 11 11 12 11 7 6 7 7 8 9 9 10 10 10 10 8 7 6 5 4 4 3 2 1 0 -1 -1 -1 -2 -2 -2 -2 -2 -2
5 7 8 4 7 9 10 10 10 9 9 9 8 8 5 6 7 6 6 6 7 7 6 8 8 7 7 5 4 4 3 2 2 1 -0 -1 -1 -2 -3 -3 -3 -3 -3 -2
5 6 4 8 10 10 9 10 9 8 7 7 8 9 8 7 6 6 6 4 5 5 6 8 8 7 6 5 4 3 2 2 1 -0 -1 -2 -2 -3 -3 -3 -3 -2 -2 -2
5 5 6 8 9 9 8 8 7 6 6 8 9 9 8 8 7 6 5 5 4 6 6 7 8 7 5 4 2 2 1 1 0 -0 -1 -2 -3 -3 -4 -4 -3 -2 -3 -3
4 4 5 8 9 10 8 5 6 8 9 9 8 3 3 7 7 7 6 6 6 6 6 6 6 5 5 3 1 1 1 0 -0 -1 -1 -2 -3 -4 -5 -4 -3 -4 -3 -3
4 4 5 7 8 8 5 5 5 10 9 9 5 5 8 7 7 7 7 7 6 6 6 5 5 5 4 3 2 1 1 0 -1 -1 -2 -3 -3 -4 -6 -6 -5 -5 -4 -4
4 4 4 6 6 5 4 6 5 9 10 9 8 8 8 7 7 7 7 7 6 6 6 5 4 4 3 2 2 1 0 -0 -1 -2 -2 -3 -4 -5 -5 -6 -5 -5 -5 -5
4 3 6 4 4 6 8 6 8 9 9 8 8 7 7 6 6 6 6 6 6 6 5 5 4 3 2 2 1 0 -0 -1 -1 -2 -2 -2 -3 -4 -5 -6 -4 -5 -5 -5
4 6 6 7 7 7 8 8 8 9 9 8 8 7 7 6 6 5 5 5 6 5 5 5 4 4 3 2 1 1 0 -1 -1 -2 -2 -2 -3 -4 -5 -5 -4 -4 -4 -5
3 5 6 7 7 8 8 8 8 8 8 8 8 7 7 6 6 5 5 6 6 5 5 4 4 3 2 2 1 0 0 -0 -1 -2 -2 -3 -4 -4 -5 -4 -4 -4 -4 -4
2 6 6 6 7 8 8 8 8 8 7 7 7 7 7 6 6 6 6 6 6 5 4 4 3 2 2 1 -0 -0 -1 -1 -1 -2 -3 -3 -4 -4 -5 -4 -4 -4 -4 -4
5 6 6 6 7 8 8 8 8 8 7 7 7 7 6 6 5 5 5 5 5 5 4 3 3 1 1 0 -0 -1 -1 -1 -2 -2 -3 -3 -4 -4 -4 -3 -4 -4 -4 -4
5 5 5 6 7 8 8 8 8 8 8 7 6 5 5 4 4 4 4 4 4 4 4 3 2 1 1 -0 -1 -1 -2 -2 -2 -2 -3 -3 -4 -4 -4 -4 -4 -4 -4 -4
5 6 6 6 7 7 8 8 8 7 6 5 5 5 4 1 2 3 3 3 2 3 3 2 1 0 -0 -1 -1 -2 -2 -3 -3 -3 -3 -3 -4 -4 -5 -4 -4 -4 -5 -5
6 7 6 6 6 6 6 7 7 6 5 4 4 3 3 3 3 3 2 1 1 1 0 -0 -0 -1 -1 -2 -2 -3 -3 -3 -4 -3 -4 -4 -4 -5 -5 -5 -5 -5 -5 -5
5 3 4 3 3 3 4 4 4 4 3 2 2 3 2 2 2 1 0 -0 -1 -1 -1 -2 -2 -2 -3 -3 -3 -3 -3 -4 -4 -4 -4 -4 -4 -4 -5 -5 -5 -6 -6 -6
2 1 1 0 1 1 2 2 2 2 2 2 2 1 2 1 1 0 -1 -1 -2 -2 -2 -2 -3 -3 -3 -4 -4 -4 -4 -4 -4 -4 -4 -5 -5 -5 -5 -6 -6 -6 -6 -7
-0 -1 -1 -1 -1 -1 -0 -0 0 -0 -0 0 0 0 -1 -1 -1 -1 -1 -2 -3 -2 -3 -3 -3 -3 -4 -4 -5 -5 -4 -4 -4 -5 -5 -5 -6 -6 -6 -6 -6 -6 -6 -6
-2 -2 -2 -2 -2 -2 -2 -2 -2 -2 -1 -1 -1 -1 -1 -2 -2 -3 -3 -3 -3 -3 -3 -3 -3 -3 -4 -4 -4 -5 -5 -5 -5 -5 -5 -5 -6 -6 -6 -6 -6 -6 -7 -7
-2 -3 -3 -3 -3 -3 -3 -3 -3 -2 -2 -2 -2 -3 -3 -3 -3 -4 -4 -4 -5 -5 -5 -4 -4 -4 -4 -4 -4 -5 -5 -5 -5 -6 -6 -6 -6 -6 -7 -7 -7 -7 -7 -8
-4 -4 -4 -4 -4 -3 -4 -3 -3 -3 -3 -4 -4 -4 -4 -4 -4 -4 -5 -5 -5 -5 -5 -5 -5 -5 -5 -5 -5 -6 -6 -6 -6 -7 -7 -7 -7 -7 -7 -7 -8 -8 -8 -8
-4 -4 -4 -5 -4 -4 -4 -4 -4 -4 -4 -4 -5 -5 -5 -5 -5 -5 -5 -6 -6 -6 -6 -6 -5 -6 -6 -6 -7 -7 -7 -7 -7 -7 -7 -7 -7 -8 -8 -8 -8 -8 -8 -8
-5 -5 -5 -5 -5 -5 -5 -5 -5 -5 -6 -6 -6 -6 -6 -6 -7 -7 -8 -7 -7 -6 -6 -6 -6 -7 -7 -7 -8 -8 -8 -8 -8 -8 -8 -8 -8 -8 -8 -8 -8 -8 -8 -8
-5 -5 -5 -5 -5 -6 -6 -6 -6 -7 -7 -7 -7 -7 -8 -8 -8 -9 -9 -9 -8 -8 -7 -7 -7 -8 -9 -9 -9 -9 -9 -9 -9 -9 -9 -9 -9 -9 -9 -9 -9 -9 -9 -9
-5 -5 -5 -5 -5 -6 -6 -6 -7 -7 -7 -8 -9 -9 -9 -10 -10 -10 -10 -10 -10 -10 -10 -10 -8 -9 -10 -10 -10 -10 -10 -10 -10 -10 -10 -9 -9 -10 -10 -10 -10 -10 -10 -10
-5 -6 -6 -6 -6 -6 -6 -7 -7 -8 -8 -8 -9 -10 -10 -9 -9 -9 -9 -9 -9 -9 -10 -10 -10 -10 -11 -11 -11 -11 -11 -11 -11 -11 -11 -11 -11 -11 -10 -10 -10 -11 -11 -11

GFSNGP_850_temp_192.txt.gz
Temp
9 9 9 8 8 8 8 8 7 8 9 10 9 9 6 7 8 8 8 9 9 9 9 10 10 10 9 9 8 7 7 6 5 4 3 2 2 3 1 -0 -0 -1 -2 -2
7 8 8 7 7 8 7 8 8 9 9 10 8 7 6 6 6 6 6 7 8 8 8 8 9 8 8 9 8 6 6 5 4 4 3 2 1 1 -1 -1 -1 -3 -3 -2
5 7 5 4 6 7 8 8 8 7 8 7 7 7 7 7 7 7 6 7 7 7 7 7 8 8 7 6 6 6 5 4 4 3 2 1 1 0 -1 -1 -2 -3 -2 -3
5 5 4 7 9 9 8 8 8 8 6 6 7 8 7 7 7 7 7 7 6 5 5 6 7 8 8 7 6 6 4 4 3 2 2 1 0 -1 -2 -2 -3 -4 -3 -3
4 5 6 7 8 8 8 7 7 7 6 6 8 7 7 8 7 7 7 7 6 6 6 6 7 7 7 5 4 4 4 3 3 2 1 -0 -0 -2 -3 -3 -4 -4 -4 -3
3 3 4 7 7 9 7 5 3 3 3 4 7 5 3 8 7 7 7 7 7 6 7 6 6 6 6 5 4 4 4 3 2 1 1 0 -0 -2 -3 -4 -5 -4 -5 -4
4 3 4 5 6 7 5 5 4 5 5 4 5 5 8 7 7 7 7 7 7 6 6 6 6 5 5 4 4 4 3 2 1 1 1 -0 -1 -2 -3 -5 -5 -5 -6 -4
3 4 4 5 6 4 4 3 4 6 6 5 7 8 7 7 6 6 6 6 6 7 6 6 5 5 4 3 3 2 1 1 0 0 -0 -1 -1 -2 -3 -4 -5 -5 -5 -4
2 2 1 3 5 5 5 4 5 5 7 8 8 8 7 7 6 6 5 5 5 6 5 5 5 4 4 3 2 2 1 0 0 -1 -1 -1 -1 -3 -3 -4 -5 -5 -6 -6
1 5 5 5 6 6 5 6 6 7 8 7 8 8 7 7 6 6 5 5 4 4 4 5 5 4 3 3 2 2 1 0 -0 -1 -1 -1 -2 -3 -3 -4 -5 -5 -6 -5
2 4 5 6 6 7 6 6 7 8 8 7 7 7 7 6 6 5 5 6 6 5 5 5 4 4 3 2 2 1 1 1 -0 -1 -1 -2 -2 -2 -3 -4 -4 -4 -5 -4
2 4 4 5 6 6 6 7 7 7 7 8 7 7 7 6 6 5 5 5 5 5 5 5 4 3 2 2 1 1 1 -0 -0 -1 -1 -2 -2 -3 -4 -4 -4 -4 -4 -4
3 4 5 4 5 6 6 7 7 7 8 8 7 6 6 5 5 5 5 5 5 4 4 4 3 2 2 1 1 0 -0 -0 -1 -1 -1 -2 -3 -3 -4 -4 -4 -4 -4 -4
4 4 3 4 4 5 6 7 7 8 8 7 6 6 6 5 4 4 4 4 4 4 3 3 3 2 1 0 -0 -0 -1 -1 -1 -1 -2 -2 -2 -3 -4 -4 -4 -4 -4 -4
4 4 3 4 5 5 6 7 7 7 6 6 5 5 5 4 4 3 3 3 2 2 2 1 1 1 1 -0 -1 -1 -2 -2 -2 -2 -2 -2 -3 -3 -4 -4 -4 -4 -4 -4
4 4 4 4 5 5 5 6 6 6 5 5 4 4 4 3 2 2 2 2 1 1 0 -0 -0 -1 -1 -2 -2 -2 -2 -3 -3 -3 -3 -3 -3 -3 -4 -4 -4 -5 -5 -4
3 3 2 1 1 2 2 3 4 3 3 4 3 3 2 2 2 1 1 0 -0 -1 -1 -2 -2 -2 -3 -3 -3 -4 -3 -3 -4 -4 -4 -4 -4 -4 -4 -4 -5 -5 -5 -5
-0 -0 -1 -1 -0 0 0 1 1 2 1 1 1 2 1 1 1 0 0 -1 -1 -2 -2 -2 -2 -3 -3 -3 -4 -4 -4 -4 -4 -4 -4 -4 -4 -4 -5 -5 -5 -5 -5 -6
-0 -1 -2 -1 -1 -1 -2 -1 -1 -0 -0 -0 -1 -1 -1 -1 -1 -1 -1 -1 -2 -2 -3 -3 -3 -3 -3 -4 -5 -5 -4 -4 -4 -4 -4 -4 -5 -5 -5 -5 -6 -6 -6 -6
-3 -2 -2 -3 -3 -2 -2 -3 -3 -2 -2 -2 -2 -2 -2 -2 -2 -3 -3 -3 -3 -3 -3 -3 -3 -4 -4 -4 -5 -5 -5 -5 -5 -5 -5 -5 -5 -6 -6 -6 -6 -6 -6 -6
-3 -3 -4 -3 -3 -3 -3 -3 -3 -3 -3 -3 -2 -3 -3 -4 -4 -4 -4 -4 -5 -4 -4 -4 -4 -4 -4 -4 -5 -5 -5 -5 -5 -5 -6 -6 -6 -6 -6 -6 -6 -7 -7 -7
-4 -5 -4 -5 -4 -4 -4 -3 -3 -3 -3 -3 -4 -4 -4 -4 -4 -4 -5 -5 -6 -5 -5 -5 -5 -5 -5 -5 -5 -5 -6 -6 -6 -6 -7 -7 -7 -7 -7 -7 -7 -7 -7 -8
-4 -5 -5 -5 -5 -4 -4 -4 -4 -4 -4 -4 -4 -4 -4 -5 -5 -5 -6 -7 -7 -7 -6 -6 -6 -6 -6 -6 -6 -6 -7 -7 -7 -7 -8 -8 -8 -8 -8 -8 -8 -8 -8 -8
-4 -5 -5 -5 -5 -5 -5 -6 -5 -5 -5 -5 -5 -5 -5 -6 -6 -7 -8 -8 -8 -6 -6 -6 -7 -7 -7 -8 -8 -8 -8 -8 -8 -8 -9 -8 -8 -8 -8 -8 -8 -8 -8 -8
-4 -5 -5 -6 -6 -6 -6 -6 -6 -6 -6 -6 -7 -7 -7 -7 -7 -9 -9 -9 -9 -9 -8 -7 -7 -8 -9 -9 -9 -9 -9 -9 -9 -9 -9 -9 -9 -9 -9 -9 -9 -9 -9 -9
-5 -5 -6 -6 -6 -6 -6 -7 -7 -7 -7 -8 -8 -8 -9 -9 -9 -10 -10 -10 -9 -10 -10 -9 -9 -9 -10 -10 -10 -10 -10 -10 -10 -10 -10 -10 -10 -10 -10 -10 -10 -10 -10 -10
-6 -6 -6 -6 -6 -6 -6 -7 -7 -8 -8 -8 -9 -10 -9 -9 -10 -9 -9 -9 -9 -10 -10 -10 -10 -10 -10 -11 -11 -11 -11 -11 -11 -12 -12 -11 -12 -11 -11 -11 -11 -11 -11 -11